GW5625 Weather Reports


time (UTC)temp
F
wind
direction
speed
knots
gust
knots
rain 1hr
in
rain 24hr
in
rain mn
in
humidity
%
barometer
mb
20260503200055 60 159 0.9 7.0 0.00 0.00 0.00 80 1008.3
20260503194526 59 222 5.2 13.0 0.00 0.00 0.00 78 1008.4
20260503193048 59 164 4.3 13.9 0.00 0.00 0.00 79 1008.4
20260503191600 61 146 1.7 7.0 0.00 0.00 0.00 78 1008.5
20260503190039 59 19 0.9 6.1 0.00 0.00 0.00 82 1008.4
20260503184507 58 153 2.6 9.6 0.00 0.00 0.00 80 1008.4
20260503183036 58 144 3.5 10.4 0.00 0.00 0.00 81 1008.2
20260503181619 58 175 1.7 6.1 0.00 0.00 0.00 84 1008.1
20260503180042 57 171 2.6 7.0 0.00 0.00 0.00 86 1008.0
20260503174601 55 169 0.0 7.0 0.00 0.00 0.00 90 1008.2
20260503174501 55 169 0.0 7.0 0.00 0.00 0.00 89 1008.2
20260503173041 55 219 0.9 13.0 0.00 0.00 0.00 89 1008.2
20260503171550 55 158 4.3 8.7 0.00 0.00 0.00 89 1008.1
20260503081557 53 251 0.0 4.3 0.00 0.00 0.00 90 1006.7
20260503071557 53 220 0.0 1.7 0.00 0.00 0.00 90 1006.8
20260503054601 53 219 0.9 6.1 0.00 0.00 0.00 90 1007.1
20260503054502 53 198 0.0 4.3 0.00 0.00 0.00 90 1007.2
20260503053036 53 219 0.9 2.6 0.00 0.00 0.00 89 1007.3
20260503051551 53 219 0.0 3.5 0.00 0.00 0.00 89 1007.4
20260503050042 53 234 0.0 5.2 0.00 0.00 0.00 89 1007.2
20260503044508 53 212 0.0 6.1 0.00 0.00 0.00 89 1007.2
20260503043034 53 207 0.0 4.3 0.00 0.00 0.00 89 1007.0
20260503041600 53 207 0.9 6.1 0.00 0.00 0.00 89 1007.0
20260503041503 53 247 1.7 6.1 0.00 0.00 0.00 89 1007.0
20260503040035 53 217 0.0 4.3 0.00 0.00 0.00 89 1007.0
20260503034602 53 236 0.9 5.2 0.00 0.00 0.00 89 1007.0
20260503034501 53 190 0.9 5.2 0.00 0.00 0.00 89 1007.0
20260503033028 53 202 0.9 7.0 0.00 0.00 0.00 89 1006.9
20260503031551 53 240 0.9 7.0 0.00 0.00 0.00 89 1006.6
20260503030042 53 205 0.9 4.3 0.00 0.00 0.00 89 1006.4
20260503024506 54 212 0.9 6.1 0.00 0.00 0.00 89 1006.5
20260503023037 54 193 0.9 5.2 0.00 0.00 0.00 89 1006.5
20260503021557 54 228 1.7 7.8 0.00 0.00 0.00 88 1006.4
20260503020048 54 244 0.0 6.1 0.00 0.00 0.00 88 1006.5
20260503014510 54 222 1.7 7.8 0.00 0.00 0.00 87 1006.6
20260503013025 54 189 1.7 7.8 0.00 0.00 0.00 87 1006.7
20260503011553 55 179 2.6 7.0 0.00 0.00 0.00 86 1006.7
20260503010056 55 198 3.5 10.4 0.00 0.00 0.00 86 1006.7
20260503004502 55 257 2.6 9.6 0.00 0.00 0.00 85 1006.8
20260503003032 56 209 2.6 10.4 0.00 0.00 0.00 85 1006.9
20260503001554 56 211 2.6 7.8 0.00 0.00 0.00 83 1006.9
20260503000045 56 188 1.7 8.7 0.00 0.00 0.00 83 1006.9
20260502234507 56 206 3.5 8.7 0.00 0.00 0.00 84 1006.9
20260502233029 56 174 4.3 9.6 0.00 0.00 0.00 84 1007.0
20260502231554 57 139 2.6 11.3 0.00 0.00 0.00 84 1007.1
20260502230032 56 239 4.3 10.4 0.00 0.00 0.00 84 1007.3
20260502224602 56 227 1.7 9.6 0.00 0.00 0.00 84 1007.5
20260502223036 56 168 2.6 10.4 0.00 0.00 0.00 84 1007.9
20260502221552 56 213 3.5 11.3 0.00 0.00 0.00 84 1008.1
20260502220039 56 255 6.1 13.0 0.00 0.00 0.00 84 1008.1
20260502214616 56 209 7.8 13.9 0.00 0.00 0.00 84 1008.1
20260502214502 56 152 6.1 13.9 0.00 0.00 0.00 84 1008.0
20260502213027 56 250 1.7 8.7 0.00 0.00 0.00 84 1008.2
20260502211555 57 183 0.0 8.7 0.00 0.00 0.00 84 1008.2
20260502210036 57 173 4.3 10.4 0.00 0.00 0.00 82 1008.3
20260502204601 56 34 4.3 8.7 0.00 0.00 0.00 86 1008.4
20260502204503 56 87 3.5 8.7 0.00 0.00 0.00 86 1008.4
20260502203043 56 191 2.6 7.8 0.00 0.00 0.00 86 1008.6
20260502201551 56 26 0.9 8.7 0.00 0.00 0.00 87 1008.6